Home   Weather   Mountain View   Past weeks

Flag for USA Past Weather in Mountain View, California, USA — Yesterday and Last 2 Weeks

Now
63 °F

Sunny.


Feels Like: 63 °F
Forecast: 61 / 83 °F
Wind: No wind

Location: Moffett Field

Current Time: Jul 23, 2017 at 7:59:46 am

Latest Report: Jul 23, 2017 at 6:56 am


Visibility: 10 mi

Pressure: 29.86 "Hg

Humidity: 84%

Dew Point: 58 °F

Location of Mountain ViewLocation

Past Weather in Mountain View — Graph

°F

Mountain View Temperature Yesterday

Maximum temperature yesterday: 84 °F (at 2:56 pm)
Minimum temperature yesterday: 58 °F (at 4:56 am)
Average temperature yesterday: 70 °F

High & Low Weather Summary for the Past Weeks

 TemperatureHumidityPressure
High96 °F (Jul 16, 3:56 pm)93% (Jul 10, 5:56 am)30.08 "Hg (Jul 10, 5:56 am)
Low57 °F (Jul 18, 5:56 am)20% (Jul 16, 3:56 pm)29.83 "Hg (Jul 23, 3:56 am)
Average67 °F71%29.96 "Hg
* Reported Jul 8 5:56 am — Jul 23 5:56 am, Mountain View. Weather by CustomWeather, © 2017

Note: Actual official high and low records may vary slightly from our data, if they occured in-between our weather recording intervals... More about our weather records

Advertising

Mountain View Weather History for the Previous 24 Hours

Scroll right to see more
 ConditionsComfort  
Time TempWeatherWind HumidityBarometerVisibility
5:56 am
Sun, Jul 23
63 °FClear.No wind84%29.85 "Hg10 mi
4:56 am63 °FClear.5 mph87%29.84 "Hg10 mi
3:56 am65 °FClear.No wind81%29.83 "Hg10 mi
2:56 am66 °FClear.No wind78%29.84 "Hg10 mi
1:56 am66 °FClear.No wind78%29.85 "Hg10 mi
12:56 am67 °FClear.No wind68%29.86 "Hg10 mi
11:56 pm
Sat, Jul 22
66 °FClear.3 mph73%29.87 "Hg10 mi
10:56 pm69 °FClear.No wind68%29.87 "Hg10 mi
9:56 pm72 °FClear.3 mph57%29.87 "Hg10 mi
8:56 pm73 °FClear.6 mph55%29.85 "Hg10 mi
7:56 pm76 °FSunny.7 mph52%29.84 "Hg10 mi
6:56 pm79 °FSunny.10 mph48%29.83 "Hg10 mi
5:56 pm81 °FSunny.10 mph45%29.83 "Hg10 mi
4:56 pm83 °FSunny.13 mph43%29.83 "Hg10 mi
3:56 pm84 °FSunny.9 mph43%29.85 "Hg10 mi
2:56 pm84 °FSunny.10 mph43%29.87 "Hg10 mi
1:56 pm83 °FSunny.10 mph38%29.89 "Hg10 mi
12:56 pm81 °FSunny.7 mph41%29.91 "Hg10 mi
11:56 am77 °FSunny.7 mph54%29.93 "Hg10 mi
10:56 am75 °FSunny.7 mph55%29.94 "Hg10 mi
9:56 am69 °FSunny.3 mph66%29.95 "Hg10 mi
8:56 am66 °FSunny.3 mph70%29.95 "Hg10 mi
7:56 am62 °FSunny.No wind80%29.96 "Hg10 mi
Weather by CustomWeather, © 2017

See weather overviewHow to use our weather pages